Location: Mococo
(38.0255°N, 122.1161°W)
Time: 06:01:42
(UTC+00:00)

ARIANE 5 R/B - Pass Details

Date: 13 February 2026
Orbit: 746 x 793 km, 98.8° (Epoch: 5 March)

Event Time Altitude Azimuth Distance (km) Brightness Sun altitude
Rises 14:23:09 0° 20° (NNE) 3,197 5.8 -8.0°
Reaches altitude 10° 14:25:33 10° 27° (NNE) 2,267 5.2 -7.5°
Maximum altitude 14:30:17 44° 99° (E) 1,030 3.9 -6.6°
Drops below altitude 10° 14:35:00 10° 172° (S) 2,258 5.2 -5.7°
Sets 14:37:23 0° 178° (S) 3,182 5.9 -5.3°
